www.pogodaiklimat.ru

Погода и климат >> Архив погоды >> Россия >> Краснодарский край >> Горный


ПОГОДА в Горном

  • Прогноз погоды в Горном
  • Монитор погоды в Горном
  • Климат города

АРХИВ ПОГОДЫ в Горном

Время (UTC), дата Ветер
(напр.,м/с)
 
Видим.   Явления Облачность Т
(С)
Тd
(С)
f
(%)
Тe
(С)
Тes
(С)
Комфортность P
(гПа)
Po
(гПа)
Тmin
(С)
Tmax
(С)
R
(мм)
R24
(мм)
S
(см)
15 23.04 Ю 7-15
{15}
20 км {гроза, ливн. осадки} 10/10 600 м
[Cb calv]
+8.0 +8.0 100 +3 +3 1001.3 963.0 +8.4 14
18 23.04 Ю 8-18
{18}
10 км слабый ливневой дождь {гроза} 10/10 600 м
[Cb cap]
+3.8 +3.8 100 -3 -3 1008.9 969.8
21 23.04 ЮЗ 5-11
{18}
10 км слабый ливневой дождь 10/10 600 м
[Cb cap]
+3.2 +3.2 100 -2 -2 1012.9 973.5
00 24.04 ЮЗ 7-15
{15}
20 км в посл. час ливневой дождь 10/10 600 м
[Cb calv]
+4.1 +4.1 100 -2 -2 1014.3 974.9
03 24.04 Ю 7-15
{15}
20 км в посл. час ливневой дождь 9/6 600 м
[Cb cap Ci ing]
+3.9 +3.6 98 -2 -2 1014.8 975.3 +3.1 12
06 24.04 Ю 6-13
{15}
4000 м ливневой дождь 10/10 600 м
[Cb cap]
+4.3 +3.9 97 -1 -1 1015.7 976.4
09 24.04 Ю 6-13
{16}
4000 м ливневой дождь 10/10 300 м
[Cb cap]
+5.2 +5.2 100 -0 -0 1015.9 976.6
12 24.04 ЮЗ 5-10
{18}
10 км гроза, ливневой дождь 10/10 600 м
[Cb cap]
+5.3 +5.3 100 0 0 1017.8 978.5
15 24.04 Ю 3
{10}
20 км {гроза} 10/10 600 м
[Sc diur, vesp]
+5.5 +2.2 79 +2 +2 1020.3 980.9 +5.9 27
18 24.04 Ю 3 10 км слабый ливневой дождь 10/10 600 м
[Cb cap]
+4.9 +2.9 87 +1 +1 1021.8 982.4
21 24.04 Ю 4
{10}
10 км слабый ливневой дождь 10/10 600 м
[Cb cap]
+4.8 +2.0 82 +1 +1 1022.7 983.2
00 25.04 ЮЗ 3 10 км гроза, ливневой дождь 10/10 600 м
[Cb cap]
+2.5 +0.7 88 -2 -2 1024.5 984.4
03 25.04 З 2 10 км слабый ливневой дождь {гроза} 9/8 600 м
[Cb cap Ac cast]
+2.4 +2.1 98 -1 -1 1027.0 986.9 +1.3 7
06 25.04 ЮЗ 4 20 км в посл. час ливневой дождь {гроза} 9/9 600 м
[Cb calv]
+3.5 +3.5 100 -1 -1 1029.4 989.4 +1.0
09 25.04 Ю 6-10
{10}
50 км 5/4 600 м
[Sc diur, vesp Ci fib]
+7.7 +2.1 68 +4 +8 1029.7 990.3
12 25.04 Ю 5
{12}
50 км 8/8 600 м
[Cu med, cong]
+9.1 +0.3 54 +6 +7 1029.7 990.5
15 25.04 ЮЗ 4 50 км 3/3 600 м
[Sc diur, vesp]
+7.9 +0.7 60 +5 +6 1030.5 991.0 +9.7 7
18 25.04 штиль 0 50 км ясно +2.8 +2.8 100 +1 +1 1031.5 991.3
21 25.04 СВ 1 50 км ясно +0.9 +0.9 100 -1 -1 1031.4 990.9
00 26.04 С 2 50 км местами туман поземный ясно -0.5 -0.5 100 -5 -5 1030.3 989.7
03 26.04 штиль 0 50 км местами туман поземный ясно -0.6 -0.6 100 -2 -2 1030.1 989.4 -1.1
06 26.04 ЮВ 2 50 км ясно +8.2 +0.9 60 +7 +15 1028.6 989.2
09 26.04 Ю 2 50 км ясно +15.6 -8.7 18 +16 +33 опасность
простуды
1026.6 988.3
12 26.04 В 1 50 км ясно +18.4 -8.7 15 +19 +33 опасность
простуды
1024.7 986.8
15 26.04 С 3 50 км ясно +17.7 -2.5 25 +18 +19 1023.6 985.6 +19.4
18 26.04 СВ 1 50 км ясно +10.3 +2.5 58 +10 +10 1024.3 985.5
21 26.04 С 2 50 км ясно +7.0 +2.5 73 +5 +5 1024.2 984.9
00 27.04 штиль 0 50 км ясно +3.1 +3.1 100 +2 +2 1024.4 984.5
03 27.04 С 1 50 км местами туман поземный ясно +1.0 +1.0 100 -1 -1 1024.4 984.3 +0.6
06 27.04 В 1 50 км ясно +13.8 +3.0 48 +14 +24 1022.6 984.2
09 27.04 СЗ 4 50 км ясно +21.3 -4.4 17 +20 +32 1020.1 982.8
12 27.04 СВ 3 50 км ясно +23.0 -4.1 16 +21 +31 комфорт 1019.2 982.0
15 27.04 С 2 50 км ясно +20.5 -3.9 19 +21 +22 комфорт 1019.3 981.8 +23.5
18 27.04 штиль 0 50 км ясно +11.4 +0.9 48 +11 +11 1021.1 982.5
21 27.04 штиль 0 50 км ясно +6.7 +4.3 85 +6 +6 1021.6 982.4
00 28.04 штиль 0 50 км ясно +4.7 +4.7 100 +3 +3 1021.3 981.7
03 28.04 С 1 50 км местами туман поземный ясно +2.8 +2.8 100 +1 +1 1021.8 982.0 +2.8
06 28.04 СВ 2 50 км ясно +15.6 +5.0 49 +16 +24 1019.5 981.5
09 28.04 С 3 50 км ясно +22.3 +0.3 23 +22 +36 комфорт 1017.9 980.8
12 28.04 С 2 50 км ясно +24.3 +0.6 21 +23 +35 комфорт 1016.7 979.8
15 28.04 СВ 3 50 км ясно +21.4 +1.6 27 +21 +22 комфорт 1016.8 979.6 +24.7
18 28.04 СВ 1 50 км ясно +13.0 +5.5 60 +13 +13 1018.7 980.4
21 28.04 С 2 50 км ясно +10.4 +5.6 72 +9 +9 1018.5 979.9
00 29.04 С 2 50 км ясно +8.3 +4.9 79 +6 +6 1018.1 979.2
03 29.04 СВ 1 50 км местами туман поземный ясно +5.6 +5.6 100 +4 +5 1018.4 979.2 +5.3
06 29.04 В 1 50 км ясно +17.4 +6.6 49 +18 +29 1016.5 978.9
09 29.04 СВ 3 50 км ясно +24.9 +1.7 22 +24 +38 комфорт 1014.6 977.9
12 29.04 СВ 3 50 км 1/1 600 м
[Cu hum]
+26.3 +2.6 22 +25 +34 комфорт 1013.4 977.0
15 29.04 С 4 50 км ясно +24.2 +0.8 21 +23 +24 комфорт 1013.1 976.4 +26.4
18 29.04 СВ 2 50 км ясно +18.4 +2.4 34 +19 +19 1014.4 977.0
21 29.04 штиль 0 50 км ясно +11.7 +5.7 67 +11 +11 1015.1 976.8
00 30.04 штиль 0 50 км ясно +7.5 +7.5 100 +6 +6 1015.7 976.8
03 30.04 С 1 50 км ясно +7.1 +7.1 100 +6 +6 1016.2 977.2 +5.8
06 30.04 штиль 0 50 км ясно +17.8 +6.9 49 +18 +30 опасность
простуды
1014.9 977.4
09 30.04 Ю 3 50 км 1/1 600 м
[Cu med, cong]
+24.2 +6.2 31 +24 +37 комфорт 1013.4 976.7

 

Местоположение метеостанции Горный (Краснодарский край, Россия): широта 44.28 долгота 39.27 высота над уровнем моря 323 м.

В архиве по умолчанию представлена погода в Горном за последнюю неделю. Архивные данные за месяц целиком и за предыдущие месяцы, начиная с января 2011 года, Вы можете получить, выбрав интересующий диапазон дат из раскрывающегося списка и нажав кнопку "Ввод!".

Внимание! Время в таблицах - всемирное. Для получения местного времени необходимо прибавить поправку, которая в Горном равна 3 ч.

Смотрите также архив погоды в соседних городах и на ближайших метеорологических станциях:

Погода в Туапсе (Краснодарский край, Россия) (26 км)
Погода в Горячем Ключе (Краснодарский край, Россия) (41 км)
Погода в Джубге (Краснодарский край, Россия) (44 км)
Погода в Шунтуке (Адыгея, Россия) (71 км)
Погода в Белореченске (Краснодарский край, Россия) (72 км)
Погода в Майкопе (Адыгея, Россия) (75 км)
Погода в Гузерипле (Адыгея, Россия) (75 км)
Погода в Сочи (Краснодарский край, Россия) (88 км)
Погода в Краснодаре (Краснодарский край, Россия) (88 км)
Погода в Кепше (Краснодарский край, Россия) (96 км)

Пояснения к столбцам:

Ветер - указаны скорость ветра в м/с - средняя за 10 мин, порывы в срок и между сроками (в фигурных скобках) и направление, откуда дует ветер: С - северный, СВ - северо-восточный, В - восточный, ЮВ - юго-восточный, Ю - южный, ЮЗ - юго-западный, З - западный, СЗ - северо-западный.
Видимость - горизонтальная дальность видимости в метрах или километрах. При видимости от 1 до 10 км при отсутствии осадков обычно наблюдается дымка, при ухудшении видимости до 1 км и менее - туман. В сухую погоду видимость может ухудшаться дымом, пылью или мглою.
Явления - указаны атмосферные явления, наблюдавшиеся в срок или в последний час перед сроком; фигурными скобками обозначены явления, наблюдавшиеся между сроками (за 1-3 часа до срока); квадратными скобками обозначены град или гололедные отложения с указанием их диаметра в мм.
Облачность - указаны через наклонную черту общая и нижняя облачность в баллах и высота нижней границы облаков в метрах; квадратными скобками обозначены формы облаков: Ci - перистые, Cs - перисто-слоистые, Cc - перисто-кучевые, Ac - высококучевые, As - высокослоистые, Sc - слоисто-кучевые, Ns - слоисто-дождевые, Cu - кучевые, Cb - кучево-дождевые. Подробнее классификацию облаков см. в Атласе облаков (PDF).
T - Температура воздуха - температура, измеренная на высоте 2 м над землей.
Td - Температура точки росы - температура, при понижении до которой содержащийся в воздухе водяной пар достигнет насыщения.
f - Относительная влажность воздуха - влажноcть воздуха, измеренная на высоте 2 м над землей.
Te - Эффективная температура - температура, которую ощущает одетый по сезону человек в тени. Характеристика душности погоды. При расчете учитывается влияние влажности воздуха и скорости ветра на теплоощущения человека.
Tes - Эффективная температура на солнце - температура, которую ощущает человек, с поправкой на солнечный нагрев. Характеристика знойности погоды. Зависит от высоты солнца над горизонтом, облачности и скорости ветра. Ночью, в пасмурную погоду, а также при ветре 12 м/с и более поправка равна нулю.
P - Атмосферное давление - приведенное к уровню моря атмосферное давление.
Po - Атмосферное давление - измеренное на уровне метеостанции атмосферное давление.
Tmin - Минимальная температура - минимум температуры воздуха на высоте 2 м над землей.
Tmax - Максимальная температура - максимум температуры воздуха на высоте 2 м над землей.
R - Количество осадков - Количество выпавших осадков за период времени, мм. При наведении курсора мыши на число - период времени, за который выпало указанное количество осадков.
R24 - Количество осадков - Количество выпавших осадков за 24 часа, мм.
S - Снежный покров - Высота снежного покрова, см. При наведении курсора мыши на число - состояние снежного покрова и степень покрытия местности в баллах.